Location: *
(28.2408°N, 53.4600°E)
Time: 19:07:04
(UTC+00:00)

Cosmos 1025 Rocket - Pass Details

Date: 22 September 2019
Orbit: 593 x 619 km, 82.5° (Epoch: 16 October)

Event Time Altitude Azimuth Distance (km) Brightness Sun altitude
Rises 15:23:55 0° 345° (NNW) 2,831 6.8 -14.1°
Reaches altitude 10° 15:26:11 10° 339° (NNW) 1,927 6.0 -14.6°
Maximum altitude 15:30:13 43° 268° (W) 840 4.3 -15.5°
Drops below altitude 10° 15:34:14 10° 196° (SSW) 1,924 5.7 -16.4°
Sets 15:36:31 0° 190° (S) 2,825 6.5 -16.9°
